Location: Carrigahorig
(53.0625°N, 8.1439°W)
Time: 23:32:11
(UTC+00:00)

Cosmos 1486 Rocket - Pass Details

Date: 15 May 2026
Orbit: 754 x 779 km, 74.1° (Epoch: 11 June)

Event Time Altitude Azimuth Distance (km) Brightness Sun altitude
Rises 21:51:56 0° 332° (NNW) 3,246 9.3 -10.3°
Reaches altitude 10° 21:54:19 10° 331° (NNW) 2,320 8.1 -10.5°
Maximum altitude 21:59:33 72° 248° (WSW) 814 4.2 -11.0°
Enters shadow 22:04:11 14° 166° (SSE) 2,081 5.7 -11.4°
